Retour au catalogue

ELECTRON KICK STAGE R/B

ActifSSO
NORAD 60085·ROCKET BODY·🇺🇸 United States

Lancé Jun 20, 2024 depuis Rocket Lab Launch Complex 1

Loading…

Prochains Passages (prochaines 24 heures)

TLE

FraisSource: Space-Track

Époque: Sep 14, 2026, 02:51 UTC

1 60085U 24114G   26257.11876579  .00007372  00000-0  37676-3 0  9998
2 60085  97.9289 314.8288 0063314 153.7463 206.7001 15.15228444122855

Suivez ELECTRON KICK STAGE R/B en temps réel avec AllMySat

Download on the App Store